Track COSMOS 2201 now! 10-day predictions COSMOS 2201 is classified as:
1 22038U 92042E 22141.51583108 .00000026 00000-0 84201-4 0 9990 2 22038 82.5869 127.2053 0010031 86.1859 36.7855 12.61724272374683